Location: Conflandey
(47.7287°N, 6.0456°E)
Time: 22:15:04
(UTC+00:00)

CENTAUR R/B - Pass Details

Date: 24 October 2021
Orbit: 728 x 1459 km, 63.4° (Epoch: 26 November)

Event Time Altitude Azimuth Distance (km) Brightness Sun altitude
Rises 17:58:55 0° 305° (NW) 3,866 6.5 -15.4°
Reaches altitude 10° 18:01:58 10° 318° (NW) 3,029 5.6 -15.9°
Maximum altitude 18:08:02 27° 14° (NNE) 2,240 4.2 -16.9°
Enters shadow 18:12:34 17° 56° (ENE) 2,870 4.5 -17.7°
